[[{"header":{"parameterUnit":"m.s-1","parameterCategory":1,"la1":30.2991,"la2":30.254,"lo1":-89.0895,"lo2":-89.0444,"dy":0.0017,"dx":0.0017,"nx":28,"ny":28,"refTime":"2024-05-04T09:00:00:Z","depth":0,"parameterNumber":2,"parameterNumberName":"U-component_of_WINDS"},"data":[0,0,0,0,0,0,0,0,0,0,0,0,0,0,0,0,0,0,0,0,0,0,0,0,0,0,0,0,0,0,0,0,0,0,0,0,0,0,0,0,0,0,0,0,0,0,0,0,0,0,0,0,0,0,0,0,0,0,-2.2491,-2.2491,0,-2.2472,-2.2471,-2.2471,-2.2419,-2.2418,-2.2417,-2.2416,-2.2394,-2.2395,-2.2395,0,0,0,0,0,0,0,0,0,0,0,0,0,-2.2485,-2.2485,-2.2491,-2.2491,-2.2491,-2.2472,-2.2471,-2.2471,-2.2419,-2.2418,-2.2416,-2.2415,-2.2394,-2.2395,-2.2395,0,0,0,0,0,0,0,0,0,0,0,0,0,-2.2479,-2.2485,-2.2491,-2.2463,-2.246,-2.2472,-2.2471,-2.2471,-2.2419,-2.2418,-2.2416,-2.2414,-2.2394,-2.2395,-2.2395,-2.2433,0,0,-2.2398,-2.2398,0,0,0,0,0,0,0,0,-2.2479,-2.2479,-2.2467,-2.2465,-2.2462,-2.2446,-2.2461,-2.2458,-2.242,-2.2435,-2.2416,-2.2414,-2.2413,-2.2412,-2.2412,-2.2432,-2.2431,-2.2398,-2.2398,-2.2398,-2.2398,0,0,0,0,0,0,0,-2.248,-2.248,-2.2483,-2.2467,-2.2464,-2.2451,-2.2448,-2.246,-2.2433,-2.2433,-2.2429,-2.2428,-2.2411,-2.2411,-2.2411,-2.2431,-2.2398,-2.2398,-2.2399,-2.2399,-2.2482,-2.2484,0,0,0,0,0,0,-2.2484,-2.248,-2.2484,-2.2483,-2.2466,-2.2452,-2.2449,-2.2453,-2.2433,-2.2428,-2.2429,-2.2425,-2.2411,-2.241,-2.241,-2.2453,-2.2398,-2.2399,-2.2399,-2.2481,-2.2483,-2.2485,0,0,0,0,0,0,-2.2484,-2.2485,-2.2485,-2.2481,-2.248,-2.2454,-2.2458,-2.2453,-2.2453,-2.243,-2.2425,-2.2434,-2.2409,-2.2409,-2.2428,-2.2451,-2.2399,-2.24,-2.2478,-2.2481,-2.2484,-2.2539,0,0,0,0,0,0,-2.2484,-2.2485,-2.2499,-2.2481,-2.248,-2.2503,-2.246,-2.2454,-2.2455,-2.245,-2.2433,-2.2429,-2.2408,-2.2427,-2.2429,-2.2451,-2.24,-2.2476,-2.248,-2.2483,-2.2535,-2.2543,-2.255,0,0,0,0,0,-2.2484,-2.2515,-2.25,-2.2501,-2.2497,-2.2505,-2.2504,-2.2479,-2.2457,-2.247,-2.2456,-2.243,-2.2449,-2.243,-2.2431,-2.2454,-2.2475,-2.2479,-2.2483,-2.2531,-2.2542,-2.255,0,0,0,0,0,0,-2.2535,-2.2512,-2.2495,-2.2521,-2.2515,-2.2496,-2.2512,-2.2491,-2.2491,-2.2486,-2.2455,-2.2452,-2.2475,-2.2467,-2.2446,-2.249,-2.2458,-2.2462,-2.2494,-2.2504,-2.2511,-2.2512,-2.2401,0,0,0,0,0,-2.255,-2.2558,-2.2537,-2.2562,-2.2561,-2.2537,-2.254,-2.2522,-2.2514,-2.2511,-2.2498,-2.2492,-2.2496,-2.25,-2.2503,-2.2534,-2.253,-2.2551,-2.2559,-2.2565,-2.2569,-2.2585,-2.2594,-2.2498,-2.2498,-2.2498,0,0,-2.2579,-2.2568,-2.2574,-2.2572,-2.2566,-2.2575,-2.2535,-2.2547,-2.2553,-2.2513,-2.253,-2.2521,-2.2512,-2.2537,-2.2548,-2.2531,-2.2595,-2.2571,-2.2576,-2.2576,-2.2591,-2.26,-2.2608,-2.2501,-2.25,-2.25,0,0,-2.2637,-2.263,-2.265,-2.2644,-2.2635,-2.262,-2.2625,-2.261,-2.2602,-2.2619,-2.2589,-2.2597,-2.2606,-2.2601,-2.2599,-2.2659,-2.2635,-2.2661,-2.2701,-2.2717,-2.2725,-2.2731,-2.2752,-2.276,-2.2665,-2.2666,-2.2666,0,-2.2674,-2.2687,-2.2662,-2.2676,-2.2676,-2.2642,-2.2662,-2.2658,-2.2651,-2.2652,-2.2633,-2.2644,-2.2636,-2.266,-2.2675,-2.2675,-2.268,-2.2662,-2.2726,-2.2732,-2.2738,-2.2757,-2.2765,-2.2669,-2.2668,-2.2668,-2.2668,0,-2.2734,-2.2744,-2.2761,-2.2756,-2.2758,-2.2775,-2.2753,-2.2759,-2.2741,-2.2728,-2.2747,-2.2736,-2.2737,-2.2742,-2.2724,-2.2764,-2.2754,-2.2731,-2.2697,-2.2751,-2.2768,-2.2776,-2.2673,-2.2672,-2.2671,-2.267,0,0,-2.282,-2.2803,-2.2809,-2.2807,-2.2796,-2.2803,-2.282,-2.2821,-2.2826,-2.2823,-2.2836,-2.2845,-2.2825,-2.2824,-2.2806,-2.2821,-2.2869,-2.2796,-2.2796,-2.2809,-2.2911,-2.2927,-2.2936,-2.2854,-2.2855,-2.2856,-2.2912,0,-2.2875,-2.2901,-2.288,-2.291,-2.2919,-2.2888,-2.2902,-2.2897,-2.2886,-2.2893,-2.288,-2.2887,-2.286,-2.2859,-2.2873,-2.286,-2.2888,-2.2856,-2.2864,-2.2865,-2.2866,-2.2946,-2.2962,-2.3015,-2.2919,-2.292,-2.2921,0,-2.294,-2.2941,-2.2972,-2.2961,-2.2964,-2.2977,-2.2977,-2.2984,-2.2978,-2.2969,-2.2969,-2.2948,-2.2964,-2.2933,-2.2954,-2.2932,-2.2935,-2.293,-2.2931,-2.2929,-2.2895,-2.2945,-2.3031,-2.3039,-2.2931,-2.2931,-2.293,0,-2.2999,-2.3008,-2.3028,-2.3027,-2.3014,-2.3024,-2.302,-2.3012,-2.3015,-2.3016,-2.3017,-2.302,-2.3021,-2.3024,-2.3004,-2.2983,-2.3028,-2.2995,-2.302,-2.3021,-2.3029,-2.3029,-2.3116,-2.3034,-2.3034,-2.3034,-2.3034,0,-2.3061,-2.3081,-2.3055,-2.3067,-2.3089,-2.3066,-2.3088,-2.308,-2.3075,-2.3085,-2.3059,-2.3069,-2.3043,-2.3051,-2.3036,-2.3056,-2.3057,-2.305,-2.3046,-2.3052,-2.3052,-2.3051,-2.3047,-2.3036,-2.3035,-2.3035,-2.3035,0,-2.3129,-2.3113,-2.3132,-2.3119,-2.3117,-2.3134,-2.3122,-2.3133,-2.3122,-2.3135,-2.3137,-2.3119,-2.3127,-2.3109,-2.3114,-2.3104,-2.3132,-2.3122,-2.3134,-2.313,-2.3156,-2.3154,-2.3245,-2.3255,-2.3168,-2.3169,-2.317,0,-2.3168,-2.3183,-2.3173,-2.3178,-2.3175,-2.3184,-2.3187,-2.3165,-2.317,-2.3166,-2.3177,-2.3184,-2.3187,-2.3201,-2.3189,-2.3193,-2.3182,-2.3214,-2.3182,-2.3188,-2.3181,-2.318,-2.3182,-2.322,-2.3221,-2.3222,-2.3222,0,-2.324,-2.3232,-2.3237,-2.324,-2.3245,-2.3246,-2.3246,-2.3252,-2.323,-2.3236,-2.3244,-2.3247,-2.3254,-2.326,-2.3262,-2.3257,-2.3236,-2.3233,-2.3239,-2.3244,-2.325,-2.3246,-2.315,-2.323,-2.323,-2.3229,-2.3229,-2.3228,-2.3294,-2.3306,-2.3301,-2.3308,-2.3306,-2.3307,-2.3317,-2.3308,-2.3314,-2.3318,-2.3305,-2.3317,-2.3312,-2.3313,-2.331,-2.3319,-2.3305,-2.3313,-2.3315,-2.3317,-2.3321,-2.325,-2.3319,-2.3319,-2.3319,-2.3319,-2.3319,0,-2.3363,-2.3359,-2.3366,-2.3367,-2.3373,-2.3355,-2.3354,-2.336,-2.3371,-2.3369,-2.3374,-2.3384,-2.3391,-2.338,-2.3384,-2.3394,-2.3384,-2.3395,-2.3394,-2.3393,-2.3334,-2.3328,-2.3403,-2.3403,-2.3403,-2.3403,-2.3403,-2.3403,-2.34,-2.3419,-2.3411,-2.343,-2.3425,-2.3437,-2.3438,-2.3439,-2.3437,-2.345,-2.3456,-2.3449,-2.3443,-2.3448,-2.3454,-2.345,-2.3453,-2.3467,-2.346,-2.3405,-2.3397,-2.3389,-2.3383,-2.3468,-2.3468,-2.3518,-2.3519,-2.3519]},{"header":{"parameterUnit":"m.s-1","parameterCategory":1,"la1":30.2991,"la2":30.254,"lo1":-89.0895,"lo2":-89.0444,"dy":0.0017,"dx":0.0017,"nx":28,"ny":28,"refTime":"2024-05-04T09:00:00:Z","depth":0,"parameterNumber":3,"parameterNumberName":"V-component_of_WINDS"},"data":[0,0,0,0,0,0,0,0,0,0,0,0,0,0,0,0,0,0,0,0,0,0,0,0,0,0,0,0,0,0,0,0,0,0,0,0,0,0,0,0,0,0,0,0,0,0,0,0,0,0,0,0,0,0,0,0,0,0,3.4176,3.4176,0,3.4223,3.4224,3.4224,3.4286,3.4287,3.4288,3.4289,3.4332,3.4332,3.4332,0,0,0,0,0,0,0,0,0,0,0,0,0,3.4134,3.4135,3.4175,3.4176,3.4177,3.4223,3.4224,3.4224,3.4286,3.4287,3.4288,3.429,3.4332,3.4332,3.4332,0,0,0,0,0,0,0,0,0,0,0,0,0,3.4164,3.4135,3.4175,3.4213,3.4217,3.4223,3.4224,3.4225,3.4286,3.4287,3.4289,3.429,3.4331,3.4332,3.4332,3.4303,0,0,3.4333,3.4333,0,0,0,0,0,0,0,0,3.4162,3.4165,3.4207,3.4211,3.4215,3.425,3.4225,3.4251,3.4285,3.4259,3.4289,3.4291,3.4303,3.4306,3.4311,3.4305,3.4307,3.4333,3.4333,3.4333,3.4333,0,0,0,0,0,0,0,3.416,3.4163,3.4194,3.4208,3.4212,3.4226,3.4232,3.423,3.4272,3.4262,3.4266,3.4271,3.4305,3.4311,3.4312,3.4307,3.4333,3.4333,3.4333,3.4333,3.4282,3.428,0,0,0,0,0,0,3.4153,3.4161,3.4193,3.4196,3.4192,3.4226,3.4233,3.4237,3.4272,3.4279,3.427,3.4274,3.4309,3.4312,3.4314,3.4284,3.4333,3.4333,3.4333,3.4283,3.4282,3.428,0,0,0,0,0,0,3.4152,3.4155,3.4191,3.418,3.4186,3.4225,3.423,3.4237,3.4243,3.4278,3.4286,3.4268,3.4311,3.4314,3.4306,3.4286,3.4333,3.4334,3.4285,3.4283,3.4281,3.4222,0,0,0,0,0,0,3.415,3.4154,3.4144,3.4179,3.4186,3.4183,3.4229,3.4237,3.4244,3.425,3.4278,3.4285,3.4312,3.4305,3.4306,3.4288,3.4334,3.4287,3.4284,3.4281,3.4226,3.4218,3.4212,0,0,0,0,0,3.4149,3.4124,3.4143,3.4147,3.4175,3.4182,3.4185,3.4219,3.4242,3.4232,3.4255,3.4284,3.4288,3.4304,3.4306,3.4287,3.4289,3.4285,3.4282,3.4229,3.422,3.4212,0,0,0,0,0,0,3.4083,3.4129,3.4151,3.4138,3.4156,3.4192,3.418,3.4208,3.4218,3.4223,3.4263,3.4268,3.4256,3.4271,3.4287,3.4261,3.4293,3.429,3.4252,3.4244,3.4236,3.4233,3.4334,0,0,0,0,0,3.4067,3.4071,3.411,3.4094,3.4103,3.414,3.4144,3.4169,3.4189,3.4196,3.4218,3.4235,3.424,3.4243,3.4249,3.4229,3.4236,3.4216,3.4209,3.4203,3.4199,3.4191,3.4183,3.4269,3.4269,3.4269,0,0,3.4034,3.406,3.4059,3.4082,3.4099,3.4101,3.4146,3.4145,3.4147,3.4195,3.4191,3.4208,3.4228,3.4215,3.421,3.4226,3.4178,3.4199,3.4193,3.4193,3.4187,3.4179,3.4172,3.4266,3.4267,3.4267,0,0,3.3975,3.3994,3.3985,3.4002,3.4028,3.4053,3.4051,3.4084,3.4098,3.4095,3.4132,3.4133,3.4141,3.4156,3.4164,3.4113,3.414,3.4114,3.4076,3.4067,3.406,3.4055,3.4038,3.4031,3.411,3.411,3.411,0,3.3929,3.3936,3.3975,3.3974,3.3983,3.403,3.402,3.4034,3.406,3.4065,3.4083,3.4097,3.4114,3.4105,3.4093,3.4098,3.4096,3.4111,3.4059,3.4053,3.4048,3.4033,3.4026,3.4107,3.4107,3.4108,3.4108,0,3.388,3.3883,3.3872,3.3899,3.3907,3.3901,3.3939,3.3942,3.3967,3.399,3.3987,3.401,3.4023,3.4023,3.4045,3.4017,3.4027,3.4052,3.4084,3.4036,3.4022,3.4016,3.4102,3.4104,3.4105,3.4105,0,0,3.3779,3.3831,3.3826,3.384,3.3873,3.3876,3.3873,3.3889,3.3891,3.3907,3.3905,3.3913,3.3937,3.3946,3.3971,3.3963,3.3924,3.3989,3.399,3.3977,3.3896,3.3878,3.387,3.3942,3.3941,3.394,3.3894,0,3.3726,3.3725,3.3762,3.375,3.3755,3.3801,3.3798,3.3817,3.3839,3.3845,3.3869,3.3874,3.3905,3.3911,3.3906,3.393,3.3908,3.3933,3.394,3.394,3.3934,3.3862,3.3843,3.3798,3.3889,3.3888,3.3887,0,3.3665,3.3682,3.3671,3.3708,3.3711,3.3708,3.3727,3.3732,3.3755,3.3772,3.3784,3.3814,3.3812,3.3843,3.3842,3.3858,3.3863,3.3876,3.3875,3.3877,3.3911,3.3863,3.3785,3.3778,3.3879,3.3879,3.388,0,3.3594,3.3614,3.3611,3.3621,3.3663,3.366,3.3677,3.3703,3.3711,3.3726,3.3732,3.3746,3.3753,3.3763,3.3796,3.3815,3.3791,3.3824,3.3804,3.3803,3.3797,3.3797,3.3719,3.3799,3.3799,3.3799,3.3799,0,3.3532,3.3524,3.358,3.3578,3.3571,3.3613,3.3604,3.3625,3.3648,3.365,3.3689,3.3691,3.3734,3.3739,3.3765,3.376,3.3763,3.3776,3.3783,3.3773,3.3771,3.3777,3.3781,3.3797,3.3798,3.3798,3.3798,0,3.3451,3.3488,3.3489,3.353,3.354,3.3533,3.3568,3.3567,3.3593,3.3595,3.3598,3.3637,3.3647,3.3681,3.3697,3.3714,3.3702,3.3715,3.3694,3.3699,3.3678,3.3679,3.36,3.3593,3.3677,3.3676,3.3675,0,3.341,3.3405,3.3447,3.3453,3.3469,3.3477,3.3487,3.3528,3.3536,3.3564,3.356,3.3573,3.3586,3.3598,3.3627,3.364,3.3654,3.3626,3.3656,3.3647,3.3655,3.3655,3.3655,3.3619,3.3618,3.3617,3.3616,0,3.3332,3.3352,3.3365,3.3384,3.3395,3.3412,3.3431,3.3433,3.3479,3.3486,3.3497,3.3507,3.3526,3.3538,3.3557,3.3573,3.3602,3.3607,3.3603,3.3592,3.3582,3.3588,3.3677,3.3608,3.3609,3.3609,3.361,3.361,3.327,3.327,3.33,3.3313,3.3333,3.335,3.3353,3.338,3.3391,3.3412,3.3435,3.3444,3.3469,3.3497,3.3511,3.3518,3.3534,3.3528,3.3527,3.3525,3.352,3.3581,3.3521,3.3522,3.3522,3.3522,3.3522,0,3.3196,3.3219,3.3231,3.3258,3.3269,3.3298,3.3321,3.3328,3.3336,3.3358,3.3371,3.3384,3.3397,3.3428,3.3444,3.3443,3.3457,3.3446,3.3447,3.345,3.3505,3.3507,3.3435,3.3435,3.3435,3.3435,3.3435,3.3435,3.3159,3.3159,3.3183,3.3193,3.3216,3.3227,3.3238,3.3254,3.3272,3.3287,3.3299,3.332,3.3346,3.3364,3.3377,3.3386,3.339,3.3374,3.3387,3.3438,3.3446,3.3454,3.3456,3.3375,3.3375,3.3333,3.3332,3.3332]}]]